TimeEST,TemperatureF,Dew PointF,Humidity,Sea Level PressureIn,VisibilityMPH,Wind Direction,Wind SpeedMPH,Gust SpeedMPH,PrecipitationIn,Events,Conditions,WindDirDegrees,DateUTC
12:11 AM,66.2,66.2,100,29.98,10.0,East,3.5,-,N/A,,Overcast,80,2012-12-08 05:11:00
12:53 AM,66.0,66.0,100,29.97,10.0,Calm,Calm,-,N/A,,Overcast,0,2012-12-08 05:53:00
1:53 AM,64.9,64.9,100,29.97,9.0,Calm,Calm,-,N/A,,Partly Cloudy,0,2012-12-08 06:53:00
2:53 AM,64.9,64.0,97,29.96,10.0,ESE,4.6,-,N/A,,Clear,120,2012-12-08 07:53:00
3:53 AM,64.9,64.0,97,29.96,7.0,ESE,3.5,-,N/A,,Clear,120,2012-12-08 08:53:00
4:36 AM,64.4,64.4,100,29.98,1.8,Calm,Calm,-,N/A,,Clear,0,2012-12-08 09:36:00
4:42 AM,64.4,64.4,100,29.97,3.0,Calm,Calm,-,N/A,,Partly Cloudy,0,2012-12-08 09:42:00
4:53 AM,64.0,64.0,100,29.97,9.0,Calm,Calm,-,N/A,,Clear,0,2012-12-08 09:53:00
5:53 AM,64.4,64.4,100,29.99,6.0,Calm,Calm,-,N/A,,Clear,0,2012-12-08 10:53:00
6:45 AM,64.4,62.6,94,30.00,1.5,Calm,Calm,-,N/A,,Clear,0,2012-12-08 11:45:00
6:53 AM,64.0,63.0,96,29.99,7.0,Calm,Calm,-,N/A,Fog,Shallow Fog,0,2012-12-08 11:53:00
7:00 AM,62.6,62.6,100,30.00,2.5,Calm,Calm,-,N/A,Fog,Shallow Fog,0,2012-12-08 12:00:00
7:02 AM,62.6,62.6,100,30.00,1.2,Calm,Calm,-,N/A,Fog,Shallow Fog,0,2012-12-08 12:02:00
7:09 AM,62.6,62.6,100,30.00,0.5,Calm,Calm,-,N/A,Fog,Shallow Fog,0,2012-12-08 12:09:00
7:15 AM,62.6,62.6,100,30.00,2.0,Calm,Calm,-,N/A,Fog,Shallow Fog,0,2012-12-08 12:15:00
7:27 AM,64.4,62.6,94,30.01,10.0,Calm,Calm,-,N/A,,Clear,0,2012-12-08 12:27:00
7:53 AM,64.9,64.0,97,30.01,10.0,Calm,Calm,-,N/A,,Clear,0,2012-12-08 12:53:00
8:53 AM,71.1,66.9,87,30.03,10.0,ESE,4.6,-,N/A,,Clear,110,2012-12-08 13:53:00
9:53 AM,73.9,68.0,82,30.03,10.0,ESE,9.2,-,N/A,,Clear,110,2012-12-08 14:53:00
10:53 AM,77.0,68.0,74,30.02,10.0,East,10.4,-,N/A,,Partly Cloudy,100,2012-12-08 15:53:00
11:53 AM,78.1,66.9,68,30.00,10.0,ESE,5.8,-,N/A,,Scattered Clouds,120,2012-12-08 16:53:00
12:21 PM,78.8,66.2,65,29.99,10.0,SE,8.1,-,N/A,,Mostly Cloudy,130,2012-12-08 17:21:00
12:30 PM,78.8,66.2,65,29.99,10.0,ESE,4.6,-,N/A,,Scattered Clouds,120,2012-12-08 17:30:00
12:53 PM,79.0,64.9,62,29.98,10.0,SSE,4.6,-,N/A,,Partly Cloudy,160,2012-12-08 17:53:00
1:53 PM,80.1,66.0,62,29.95,10.0,East,5.8,-,N/A,,Mostly Cloudy,90,2012-12-08 18:53:00
2:53 PM,73.9,69.1,85,29.96,2.5,SSW,12.7,-,0.05,Rain,Rain,210,2012-12-08 19:53:00
3:03 PM,71.6,68.0,88,29.97,10.0,SSW,11.5,-,0.00,Rain,Light Rain,200,2012-12-08 20:03:00
3:53 PM,71.1,69.1,93,29.97,10.0,South,10.4,-,0.01,,Overcast,180,2012-12-08 20:53:00
4:53 PM,71.1,69.1,93,29.98,10.0,North,3.5,-,0.00,,Overcast,360,2012-12-08 21:53:00
5:53 PM,70.0,68.0,93,29.99,10.0,NNW,3.5,-,N/A,,Overcast,340,2012-12-08 22:53:00
6:10 PM,69.8,68.0,94,30.00,10.0,NNE,3.5,-,N/A,,Scattered Clouds,30,2012-12-08 23:10:00
6:53 PM,69.1,66.9,93,30.01,10.0,NE,6.9,-,N/A,,Clear,50,2012-12-08 23:53:00
7:53 PM,68.0,66.9,96,30.01,10.0,Calm,Calm,-,N/A,,Clear,0,2012-12-09 00:53:00
8:53 PM,66.9,66.0,97,30.03,10.0,Calm,Calm,-,N/A,,Clear,0,2012-12-09 01:53:00
9:53 PM,66.0,66.0,100,30.04,2.0,Calm,Calm,-,N/A,,Clear,0,2012-12-09 02:53:00
10:07 PM,66.2,66.2,100,30.05,10.0,NW,3.5,-,N/A,,Clear,310,2012-12-09 03:07:00
10:41 PM,64.4,64.4,100,30.05,10.0,NNE,4.6,-,N/A,,Partly Cloudy,30,2012-12-09 03:41:00
10:53 PM,66.0,66.0,100,30.04,10.0,NNE,3.5,-,N/A,,Partly Cloudy,20,2012-12-09 03:53:00
11:53 PM,64.9,64.9,100,30.04,7.0,East,3.5,-,N/A,,Scattered Clouds,90,2012-12-09 04:53:00